[[{"header":{"parameterUnit":"m.s-1","parameterCategory":1,"la1":30.2991,"la2":30.254,"lo1":-89.0895,"lo2":-89.0444,"dy":0.0017,"dx":0.0017,"nx":28,"ny":28,"refTime":"2024-03-18T03:00:00:Z","depth":0,"parameterNumber":2,"parameterNumberName":"U-component_of_WINDS"},"data":[0,0,0,0,0,0,0,0,0,0,0,0,0,0,0,0,0,0,0,0,0,0,0,0,0,0,0,0,0,0,0,0,0,0,0,0,0,0,0,0,0,0,0,0,0,0,0,0,0,0,0,0,0,0,0,0,0,0,-0.485,-0.485,0,-0.4885,-0.4885,-0.4886,-0.4868,-0.4867,-0.4866,-0.4865,-0.49,-0.4902,-0.4904,0,0,0,0,0,0,0,0,0,0,0,0,0,-0.4764,-0.4766,-0.4849,-0.485,-0.485,-0.4885,-0.4885,-0.4886,-0.4868,-0.4867,-0.4866,-0.4864,-0.49,-0.4902,-0.4904,0,0,0,0,0,0,0,0,0,0,0,0,0,-0.48,-0.4766,-0.4849,-0.4846,-0.4846,-0.4885,-0.4885,-0.4886,-0.4868,-0.4867,-0.4865,-0.4864,-0.4899,-0.4901,-0.4904,-0.4949,0,0,-0.4912,-0.4914,0,0,0,0,0,0,0,0,-0.4798,-0.4804,-0.4846,-0.4846,-0.4846,-0.487,-0.4868,-0.4907,-0.4868,-0.4859,-0.4865,-0.4863,-0.4891,-0.4895,-0.4904,-0.4951,-0.4952,-0.4913,-0.4914,-0.4915,-0.4916,0,0,0,0,0,0,0,-0.4796,-0.4802,-0.4863,-0.4846,-0.4846,-0.4841,-0.4845,-0.4875,-0.4883,-0.486,-0.4859,-0.4863,-0.4891,-0.4902,-0.4905,-0.4953,-0.4913,-0.4915,-0.4917,-0.4918,-0.5036,-0.5038,0,0,0,0,0,0,-0.4794,-0.48,-0.4862,-0.4865,-0.4818,-0.4844,-0.4848,-0.4864,-0.4882,-0.4884,-0.4865,-0.4862,-0.4898,-0.4902,-0.4906,-0.4959,-0.4915,-0.4918,-0.492,-0.5035,-0.5037,-0.5038,0,0,0,0,0,0,-0.4792,-0.48,-0.4861,-0.4832,-0.4839,-0.4847,-0.4865,-0.4865,-0.4876,-0.4886,-0.4887,-0.4874,-0.4897,-0.4902,-0.4938,-0.496,-0.4919,-0.4922,-0.5033,-0.5035,-0.5037,-0.5067,0,0,0,0,0,0,-0.479,-0.4799,-0.4817,-0.4833,-0.4841,-0.4893,-0.4866,-0.4867,-0.4881,-0.4878,-0.4895,-0.4896,-0.4896,-0.4934,-0.4941,-0.4963,-0.4924,-0.5031,-0.5034,-0.5037,-0.5064,-0.507,-0.5075,0,0,0,0,0,-0.4787,-0.4823,-0.4818,-0.4825,-0.4863,-0.4895,-0.4899,-0.4899,-0.4883,-0.49,-0.4906,-0.4896,-0.4957,-0.4938,-0.4945,-0.4969,-0.503,-0.5033,-0.5037,-0.5061,-0.5069,-0.5075,0,0,0,0,0,0,-0.481,-0.4826,-0.4819,-0.4862,-0.4877,-0.4891,-0.4914,-0.4906,-0.4926,-0.4923,-0.492,-0.4924,-0.4961,-0.4969,-0.4948,-0.5013,-0.4991,-0.4996,-0.5007,-0.5014,-0.5019,-0.5017,-0.4926,0,0,0,0,0,-0.482,-0.4845,-0.4857,-0.4893,-0.4901,-0.4906,-0.492,-0.4918,-0.4933,-0.4939,-0.4948,-0.4963,-0.4985,-0.5,-0.5021,-0.5064,-0.5067,-0.5084,-0.509,-0.5094,-0.5099,-0.5122,-0.5129,-0.505,-0.505,-0.5049,0,0,-0.4841,-0.4853,-0.4869,-0.4898,-0.491,-0.4935,-0.4912,-0.4939,-0.4957,-0.4943,-0.4978,-0.4984,-0.5001,-0.5041,-0.5059,-0.5048,-0.5121,-0.5098,-0.5102,-0.5104,-0.5126,-0.5133,-0.514,-0.5052,-0.5051,-0.5051,0,0,-0.4893,-0.4904,-0.4936,-0.4948,-0.4965,-0.4968,-0.4975,-0.4991,-0.4995,-0.5029,-0.5019,-0.504,-0.5079,-0.509,-0.5102,-0.5156,-0.5147,-0.5163,-0.5192,-0.5214,-0.5221,-0.5226,-0.5245,-0.5252,-0.5167,-0.5167,-0.5167,0,-0.4917,-0.4955,-0.4953,-0.4981,-0.4995,-0.4983,-0.5014,-0.5025,-0.5049,-0.5058,-0.5045,-0.5093,-0.5103,-0.5145,-0.5159,-0.5168,-0.5176,-0.5162,-0.522,-0.5225,-0.523,-0.5249,-0.5256,-0.5169,-0.5169,-0.5169,-0.5169,0,-0.4984,-0.501,-0.5033,-0.5056,-0.5072,-0.5102,-0.5104,-0.512,-0.5116,-0.512,-0.5154,-0.5166,-0.5189,-0.5198,-0.5195,-0.524,-0.5233,-0.522,-0.5198,-0.524,-0.5257,-0.5264,-0.5172,-0.5171,-0.5171,-0.517,0,0,-0.5052,-0.5073,-0.5082,-0.5092,-0.5109,-0.5129,-0.5158,-0.5181,-0.5194,-0.521,-0.5234,-0.5266,-0.5254,-0.5267,-0.5264,-0.5284,-0.5326,-0.5269,-0.5269,-0.5279,-0.5376,-0.5386,-0.5394,-0.532,-0.5321,-0.5322,-0.5374,0,-0.5105,-0.5156,-0.5155,-0.5202,-0.5226,-0.5214,-0.5239,-0.5252,-0.5256,-0.5276,-0.528,-0.5303,-0.5286,-0.5293,-0.5312,-0.5317,-0.5346,-0.5313,-0.5342,-0.5343,-0.5339,-0.5403,-0.5413,-0.5462,-0.5381,-0.5382,-0.5383,0,-0.5174,-0.5192,-0.5242,-0.5256,-0.5266,-0.5288,-0.5308,-0.5328,-0.5342,-0.5343,-0.5357,-0.5351,-0.5379,-0.5355,-0.5394,-0.5372,-0.5383,-0.5387,-0.5389,-0.5392,-0.5366,-0.5408,-0.5478,-0.5485,-0.5394,-0.5393,-0.5392,0,-0.5219,-0.5256,-0.5291,-0.5299,-0.5316,-0.5332,-0.534,-0.5352,-0.5366,-0.5383,-0.5391,-0.5412,-0.5423,-0.5438,-0.5437,-0.542,-0.5476,-0.5453,-0.5478,-0.5478,-0.5491,-0.549,-0.5564,-0.5497,-0.5497,-0.5497,-0.5497,0,-0.5279,-0.5309,-0.5311,-0.5332,-0.5366,-0.5363,-0.5397,-0.5402,-0.5414,-0.5435,-0.5426,-0.5446,-0.5444,-0.5464,-0.5463,-0.5495,-0.55,-0.5501,-0.5501,-0.5503,-0.5502,-0.551,-0.5507,-0.5499,-0.5499,-0.5498,-0.5498,0,-0.5335,-0.5337,-0.5374,-0.5386,-0.539,-0.5415,-0.5425,-0.5445,-0.5447,-0.5474,-0.5481,-0.5485,-0.5508,-0.5508,-0.5535,-0.5534,-0.5573,-0.5569,-0.5569,-0.5568,-0.5593,-0.5591,-0.5675,-0.5685,-0.5612,-0.5613,-0.5613,0,-0.5373,-0.5397,-0.5412,-0.5425,-0.5434,-0.5457,-0.547,-0.5468,-0.5482,-0.5499,-0.5517,-0.5539,-0.5557,-0.5594,-0.5599,-0.5619,-0.5615,-0.5643,-0.5618,-0.5618,-0.5615,-0.5614,-0.5616,-0.5648,-0.5649,-0.5649,-0.565,0,-0.5441,-0.544,-0.5461,-0.5481,-0.5498,-0.5513,-0.5528,-0.554,-0.5539,-0.5555,-0.5579,-0.5593,-0.5619,-0.5641,-0.566,-0.5667,-0.5658,-0.5658,-0.5665,-0.5667,-0.5666,-0.5667,-0.5582,-0.5656,-0.5655,-0.5655,-0.5655,-0.5654,-0.5489,-0.5509,-0.5523,-0.5545,-0.5556,-0.557,-0.5589,-0.5593,-0.5613,-0.5635,-0.5632,-0.5658,-0.5671,-0.5695,-0.5704,-0.5724,-0.5714,-0.5724,-0.5726,-0.5729,-0.5732,-0.5662,-0.5727,-0.5727,-0.5727,-0.5726,-0.5726,0,-0.5556,-0.5564,-0.5585,-0.5606,-0.5623,-0.5613,-0.5629,-0.5644,-0.5667,-0.5679,-0.5697,-0.5723,-0.5744,-0.575,-0.577,-0.5785,-0.5781,-0.579,-0.5789,-0.5791,-0.5739,-0.5732,-0.5793,-0.5793,-0.5793,-0.5793,-0.5793,-0.5793,-0.5593,-0.5627,-0.5628,-0.5666,-0.5673,-0.5699,-0.5709,-0.5721,-0.5731,-0.5761,-0.5778,-0.5782,-0.5792,-0.5812,-0.5831,-0.5832,-0.584,-0.585,-0.585,-0.5801,-0.5795,-0.5788,-0.5781,-0.5852,-0.5852,-0.59,-0.59,-0.5901]},{"header":{"parameterUnit":"m.s-1","parameterCategory":1,"la1":30.2991,"la2":30.254,"lo1":-89.0895,"lo2":-89.0444,"dy":0.0017,"dx":0.0017,"nx":28,"ny":28,"refTime":"2024-03-18T03:00:00:Z","depth":0,"parameterNumber":3,"parameterNumberName":"V-component_of_WINDS"},"data":[0,0,0,0,0,0,0,0,0,0,0,0,0,0,0,0,0,0,0,0,0,0,0,0,0,0,0,0,0,0,0,0,0,0,0,0,0,0,0,0,0,0,0,0,0,0,0,0,0,0,0,0,0,0,0,0,0,0,-4.6887,-4.6887,0,-4.6945,-4.6946,-4.6946,-4.6887,-4.6884,-4.6882,-4.688,-4.6935,-4.6939,-4.6943,0,0,0,0,0,0,0,0,0,0,0,0,0,-4.6718,-4.6722,-4.6886,-4.6887,-4.6888,-4.6945,-4.6946,-4.6947,-4.6887,-4.6884,-4.6881,-4.6879,-4.6934,-4.6939,-4.6943,0,0,0,0,0,0,0,0,0,0,0,0,0,-4.6786,-4.6723,-4.6886,-4.6865,-4.6864,-4.6945,-4.6946,-4.6947,-4.6888,-4.6884,-4.6881,-4.6878,-4.6933,-4.6938,-4.6944,-4.7047,0,0,-4.696,-4.6963,0,0,0,0,0,0,0,0,-4.6782,-4.6792,-4.6868,-4.6867,-4.6866,-4.6905,-4.6907,-4.698,-4.6889,-4.6879,-4.688,-4.6876,-4.6928,-4.6934,-4.6952,-4.7049,-4.7052,-4.6961,-4.6964,-4.6966,-4.6968,0,0,0,0,0,0,0,-4.6777,-4.6789,-4.6909,-4.6869,-4.6868,-4.6851,-4.6857,-4.692,-4.6922,-4.6879,-4.6875,-4.6883,-4.6927,-4.6947,-4.6953,-4.7052,-4.6961,-4.6965,-4.6969,-4.6971,-4.7236,-4.724,0,0,0,0,0,0,-4.6776,-4.6785,-4.6908,-4.6911,-4.6814,-4.6857,-4.6864,-4.6896,-4.6921,-4.6922,-4.6886,-4.688,-4.6939,-4.6947,-4.6955,-4.7077,-4.6966,-4.6971,-4.6975,-4.7233,-4.7237,-4.7241,0,0,0,0,0,0,-4.6772,-4.6787,-4.6905,-4.6847,-4.6861,-4.6864,-4.6901,-4.6899,-4.6919,-4.6926,-4.6926,-4.6907,-4.6937,-4.6947,-4.7024,-4.7078,-4.6974,-4.6979,-4.7228,-4.7234,-4.7239,-4.7322,0,0,0,0,0,0,-4.6768,-4.6786,-4.6827,-4.6849,-4.6865,-4.6976,-4.6904,-4.6903,-4.6929,-4.6922,-4.6946,-4.6946,-4.6935,-4.7017,-4.703,-4.7083,-4.6983,-4.7223,-4.7231,-4.7237,-4.7315,-4.733,-4.7343,0,0,0,0,0,-4.6762,-4.6847,-4.6829,-4.6844,-4.6915,-4.6979,-4.6988,-4.6975,-4.6934,-4.6974,-4.6978,-4.6945,-4.707,-4.7025,-4.7039,-4.7096,-4.722,-4.7229,-4.7237,-4.7308,-4.7327,-4.7343,0,0,0,0,0,0,-4.6829,-4.6849,-4.683,-4.6925,-4.6951,-4.6969,-4.7019,-4.6995,-4.7032,-4.7023,-4.7004,-4.701,-4.7092,-4.7101,-4.7051,-4.7196,-4.7138,-4.715,-4.7187,-4.7205,-4.7219,-4.7215,-4.6988,0,0,0,0,0,-4.6856,-4.6907,-4.6921,-4.7003,-4.7018,-4.7016,-4.7043,-4.7031,-4.7057,-4.7067,-4.7077,-4.7102,-4.7146,-4.7176,-4.7218,-4.7316,-4.7319,-4.7361,-4.7375,-4.7387,-4.7398,-4.745,-4.7468,-4.7269,-4.7269,-4.7269,0,0,-4.691,-4.6927,-4.696,-4.7017,-4.7036,-4.7089,-4.7026,-4.7084,-4.7122,-4.7075,-4.715,-4.7158,-4.7184,-4.7272,-4.7312,-4.7283,-4.7453,-4.7398,-4.7407,-4.7411,-4.746,-4.7479,-4.7496,-4.7275,-4.7274,-4.7273,0,0,-4.7035,-4.7054,-4.7125,-4.7145,-4.7175,-4.7173,-4.719,-4.7212,-4.7216,-4.7291,-4.7256,-4.7301,-4.7378,-4.7398,-4.7419,-4.7552,-4.7523,-4.7566,-4.764,-4.7691,-4.7707,-4.7721,-4.7768,-4.7785,-4.7576,-4.7576,-4.7576,0,-4.7098,-4.7178,-4.7163,-4.7225,-4.725,-4.7211,-4.7282,-4.7302,-4.7343,-4.7361,-4.7328,-4.7425,-4.7439,-4.7532,-4.7564,-4.7582,-4.76,-4.7563,-4.7706,-4.772,-4.7732,-4.7777,-4.7795,-4.7581,-4.7581,-4.758,-4.758,0,-4.7254,-4.7309,-4.7363,-4.7405,-4.7437,-4.7502,-4.7496,-4.753,-4.7514,-4.7516,-4.7591,-4.7608,-4.7652,-4.7673,-4.7658,-4.7763,-4.7744,-4.7709,-4.765,-4.7757,-4.7798,-4.7815,-4.7588,-4.7587,-4.7585,-4.7584,0,0,-4.7424,-4.7458,-4.7478,-4.7497,-4.7527,-4.7568,-4.7631,-4.7676,-4.7705,-4.7734,-4.7786,-4.7852,-4.782,-4.7843,-4.783,-4.7875,-4.7979,-4.7834,-4.7834,-4.786,-4.8095,-4.8122,-4.8142,-4.796,-4.7963,-4.7966,-4.8093,0,-4.755,-4.7662,-4.7651,-4.7756,-4.7807,-4.7771,-4.7825,-4.7849,-4.7852,-4.7894,-4.7896,-4.7943,-4.7897,-4.7911,-4.7954,-4.7958,-4.8026,-4.7948,-4.8007,-4.8009,-4.8002,-4.8164,-4.8192,-4.8312,-4.811,-4.8112,-4.8114,0,-4.7713,-4.775,-4.7862,-4.7884,-4.7905,-4.7955,-4.7994,-4.8035,-4.806,-4.8059,-4.8086,-4.8064,-4.8126,-4.8066,-4.815,-4.8098,-4.8121,-4.8126,-4.813,-4.8135,-4.8069,-4.8174,-4.835,-4.8368,-4.814,-4.8138,-4.8136,0,-4.7826,-4.7904,-4.798,-4.7998,-4.8025,-4.8061,-4.8074,-4.8096,-4.8123,-4.8157,-4.8175,-4.8215,-4.8237,-4.8268,-4.8258,-4.8215,-4.8344,-4.8283,-4.8344,-4.8345,-4.8373,-4.8372,-4.8556,-4.8388,-4.8388,-4.8388,-4.8387,0,-4.7969,-4.8039,-4.8032,-4.8079,-4.8155,-4.8141,-4.8216,-4.8224,-4.8244,-4.829,-4.826,-4.8305,-4.8288,-4.8331,-4.8323,-4.8394,-4.8404,-4.8404,-4.8401,-4.8407,-4.8407,-4.8422,-4.8414,-4.8392,-4.8391,-4.839,-4.839,0,-4.8109,-4.8107,-4.8188,-4.8208,-4.8215,-4.827,-4.8286,-4.8329,-4.833,-4.839,-4.8403,-4.8403,-4.8452,-4.8445,-4.8498,-4.8493,-4.8581,-4.8568,-4.8574,-4.8571,-4.8632,-4.8627,-4.8833,-4.8859,-4.8674,-4.8676,-4.8677,0,-4.82,-4.8253,-4.8279,-4.8309,-4.8325,-4.8374,-4.8402,-4.8389,-4.8419,-4.8452,-4.8491,-4.8538,-4.8575,-4.8654,-4.8658,-4.8699,-4.8686,-4.8756,-4.8692,-4.8696,-4.8687,-4.8685,-4.869,-4.8768,-4.8771,-4.8772,-4.8774,0,-4.8363,-4.8359,-4.8402,-4.8445,-4.848,-4.8513,-4.8542,-4.8568,-4.8557,-4.8593,-4.8643,-4.8672,-4.8727,-4.8773,-4.8812,-4.8823,-4.8797,-4.8794,-4.881,-4.8817,-4.8818,-4.8818,-4.8608,-4.8789,-4.8787,-4.8786,-4.8785,-4.8785,-4.8481,-4.8526,-4.8552,-4.86,-4.8621,-4.865,-4.8692,-4.8698,-4.874,-4.8786,-4.8775,-4.8832,-4.8855,-4.8904,-4.8919,-4.8962,-4.8937,-4.896,-4.8966,-4.8972,-4.898,-4.8811,-4.8969,-4.8969,-4.8968,-4.8968,-4.8968,0,-4.8642,-4.8657,-4.8702,-4.8745,-4.8783,-4.8756,-4.8787,-4.882,-4.8871,-4.8895,-4.8932,-4.899,-4.9034,-4.9042,-4.9084,-4.9117,-4.9106,-4.9129,-4.9126,-4.9129,-4.9,-4.8982,-4.9137,-4.9137,-4.9137,-4.9137,-4.9137,-4.9137,-4.873,-4.8806,-4.8805,-4.889,-4.8904,-4.8961,-4.8981,-4.9006,-4.9025,-4.9092,-4.9129,-4.9135,-4.9152,-4.9195,-4.9234,-4.9235,-4.9252,-4.9279,-4.9276,-4.9155,-4.9138,-4.9122,-4.9105,-4.9283,-4.9283,-4.9401,-4.9402,-4.9403]}]]